Anchorage, AK

10:25 AM AKST on February 09, 2016 (GMT -0900)
Lake Hood

Weather History for PALH - December, 2012

Change the Weather History Date:

Wednesday, December 26, 2012

  Actual Average Record
Temperature  
Mean Temperature 21 °F -  
Max Temperature 26 °F 20 °F 48 °F (1999)
Min Temperature 16 °F 8 °F -5 °F (2003)
Degree Days  
Heating Degree Days 44    
Moisture  
Dew Point 17 °F    
Average Humidity 81    
Maximum Humidity 88    
Minimum Humidity 75    
Precipitation  
Precipitation 0.00 in - - ()
Sea Level Pressure  
Sea Level Pressure 29.51 in    
Wind  
Wind Speed 3 mph (North)    
Max Wind Speed 7 mph    
Max Gust Speed -    
Visibility 10 miles    
Events      
Averages and records for this station are not official NWS values.
T = Trace of Precipitation, MM = Missing Value Source: NWS Daily Summary

Daily Weather History Graph

Daily Weather History Graph

Search for Another Location

Airport or City:

Trip Planner

Search our weather history database for the weather conditions in past years. The results will help you decide how hot, cold, wet, or windy it might be!

Date:

Astronomy

Dec. 26, 2012 Rise Set
Actual Time 10:15 AM AKST 3:46 PM AKST
Civil Twilight 9:13 AM AKST 4:48 PM AKST
Nautical Twilight 8:13 AM AKST 5:47 PM AKST
Astronomical Twilight 7:20 AM AKST 6:41 PM AKST
Moon 2:58 PM AKST (12/26) 8:36 AM AKST (12/26)
Length of Visible Light 7h 34m
Length of Day
5h 30m
Waxing Gibbous, 98% of the Moon is Illuminated
Dec 26
Waxing Gibbous
Dec 28
Full
Jan 4
Last Quarter
Jan 11
New
Jan 18
First Quarter

Hourly Weather History & Observations

Time (AKST) Temp. Windchill Dew Point Humidity Pressure Visibility Wind Dir Wind Speed Gust Speed Precip Events Conditions
12:13 AM 23.0 °F 17.0 °F 17.6 °F 80% 29.64 in 10.0 mi NNE 4.6 mph - N/A   Overcast
12:53 AM 24.1 °F 17.0 °F 19.0 °F 81% 29.64 in 10.0 mi NE 5.8 mph - N/A   Overcast
1:53 AM 24.1 °F 19.7 °F 18.0 °F 77% 29.63 in 10.0 mi NNE 3.5 mph - N/A   Overcast
3:13 AM 19.4 °F 12.8 °F 15.8 °F 86% 29.62 in 10.0 mi NNE 4.6 mph - N/A   Mostly Cloudy
3:53 AM 19.0 °F 10.0 °F 14.0 °F 81% 29.62 in 10.0 mi NNE 6.9 mph - N/A   Clear
4:53 AM 19.0 °F 13.9 °F 14.0 °F 81% 29.60 in 10.0 mi NNE 3.5 mph - N/A   Partly Cloudy
5:53 AM 17.1 °F - 12.9 °F 84% 29.58 in 10.0 mi Calm Calm - N/A   Partly Cloudy
6:21 AM 17.6 °F - 12.2 °F 79% 29.57 in 10.0 mi Calm Calm - N/A   Mostly Cloudy
6:53 AM 17.1 °F - 12.0 °F 81% 29.57 in 10.0 mi Calm Calm - N/A   Mostly Cloudy
7:53 AM 16.0 °F - 12.9 °F 88% 29.55 in 10.0 mi Calm Calm - N/A   Partly Cloudy
8:53 AM 16.0 °F - 12.9 °F 88% 29.54 in 10.0 mi Calm Calm - N/A   Clear
9:53 AM 18.0 °F - 15.1 °F 88% 29.53 in 10.0 mi Calm Calm - N/A   Partly Cloudy
10:53 AM 16.0 °F - 12.9 °F 88% 29.51 in 10.0 mi Calm Calm - N/A   Scattered Clouds
11:53 AM 19.9 °F 14.9 °F 16.0 °F 85% 29.51 in 10.0 mi South 3.5 mph - N/A   Scattered Clouds
12:53 PM 21.9 °F 15.7 °F 17.1 °F 82% 29.48 in 10.0 mi Variable 4.6 mph - N/A   Clear
1:53 PM 25.0 °F 18.1 °F 19.0 °F 78% 29.47 in 10.0 mi North 5.8 mph - N/A   Scattered Clouds
2:53 PM 25.0 °F 20.7 °F 19.0 °F 78% 29.47 in 10.0 mi North 3.5 mph - N/A   Scattered Clouds
3:53 PM 25.0 °F - 19.0 °F 78% 29.45 in 10.0 mi Calm Calm - N/A   Overcast
4:53 PM 25.0 °F 19.3 °F 19.0 °F 78% 29.42 in 10.0 mi NNW 4.6 mph - N/A   Overcast
5:53 PM 25.0 °F 19.3 °F 18.0 °F 75% 29.42 in 10.0 mi North 4.6 mph - N/A   Overcast
6:53 PM 26.1 °F 20.5 °F 19.0 °F 75% 29.41 in 10.0 mi NNW 4.6 mph - N/A   Overcast
7:53 PM 26.1 °F 21.9 °F 19.0 °F 75% 29.39 in 10.0 mi North 3.5 mph - N/A   Overcast
8:53 PM 25.0 °F 20.7 °F 19.0 °F 78% 29.39 in 10.0 mi NW 3.5 mph - N/A   Overcast
9:53 PM 25.0 °F - 19.0 °F 78% 29.39 in 10.0 mi Calm Calm - N/A   Overcast
10:53 PM 24.1 °F - 19.0 °F 81% 29.38 in 10.0 mi Calm Calm - N/A   Overcast
11:53 PM 23.0 °F - 19.0 °F 85% 29.37 in 10.0 mi Calm Calm - N/A   Overcast